Location: Eitze
(52.9840°N, 9.6894°E)
Time: 10:20:03
(UTC+00:00)

Exosat Rocket - Pass Details

Date: 19 May 2025
Orbit: 761 x 2512 km, 72.3° (Epoch: 23 June)

Event Time Altitude Azimuth Distance (km) Brightness Sun altitude
Rises 23:09:18 0° 328° (NNW) 3,378 7.9 -17.0°
Reaches altitude 10° 23:11:49 10° 323° (NW) 2,358 6.8 -17.0°
Maximum altitude 23:16:42 49° 249° (WSW) 986 3.9 -17.0°
Enters shadow 23:18:56 29° 192° (SSW) 1,399 4.3 -17.0°
